"Pseudo-MPEC" for C0MN3N5

Created 2023 Nov 29 17:22:02 UT using Find_Orb

Click here for an explanation of pseudo-MPECs

 
 Astrometry: 
     C0MN3N5* C2023 11 15.16901000 04 43.637+33 16 50.84   ~BF4q 22.02GVNEOCPV00
     C0MN3N5  C2023 11 15.17453800 04 43.504+33 17 16.55   ~BF4q 22.02GVNEOCPV00
     C0MN3N5  C2023 11 15.18003800 04 43.324+33 17 41.68   ~BF4q 22.11GVNEOCPV00
     C0MN3N5  C2023 11 15.18553800 04 43.172+33 18 06.88   ~BF4q 21.98GVNEOCPV00
     C0MN3N5  C2023 11 15.22303600 04 41.926+33 20 54.99   ~BF67 21.8 GVNEOCPH01
     C0MN3N5  C2023 11 15.22724000 04 41.819+33 21 14.07   ~BF67 21.7 GVNEOCPH01
     C0MN3N5  C2023 11 15.23721200 04 41.585+33 21 59.12   ~BF67 21.7 GVNEOCPH01
     C0MN3N5  C2023 11 15.24370300 04 41.426+33 22 28.24   ~BF67 21.7 GVNEOCPH01

Station data:
(H01) Magdalena Ridge Observatory, Socorro  (N33.984833 W107.189333)  US/New
   Mexico.  Observers W. H. Ryan, E. V. Ryan. Measurer W. H. Ryan. 2.4-m
   f/8.9 reflector + CCD.
(V00) Kitt Peak-Bok  (N31.963125 W111.600190)  US/Arizona.  Observers T. A.
   Pruyne, B. M. Africano, E. J. Christensen, G. A. Farneth, D. C. Fuls, A.
   R. Gibbs, A. D. Grauer, H. Gröller, J. A. Johnson, R. A. Kowalski, S. M.
   Larson, G. J. Leonard, D. Rankin, R. L. Seaman, F. C. Shelly, K. W.
   Wierzchoś. 2.25-m reflector + 4x4K mosaic CCD.

Orbital elements:  C0MN3N5
   Perihelion 2023 Sep 19.35830 +/- 33.2 TT =  8:35:57 (JD 2460206.85830)
Epoch 2023 Nov 15.0 TT = JDT 2460263.5   Earth MOID: 0.0368      AutoNEOCP
M  17.06828396 +/- 22               (J2000 ecliptic)
n   0.30133777 +/- 0.271            Peri.  279.03369 +/- 60
a   2.20343545 +/- 1.32             Node    41.74086 +/- 20
e   0.6896479 +/- 0.239             Incl.   41.74942 +/- 14
P   3.27                   H 23.93  G  0.15   U 11.9  SR
q 0.68384062 +/- 0.225    Q 3.72303027 +/- 19.7
From 8 observations 2023 Nov. 15 (1.8 hr); mean residual 0".13
Residuals in arcseconds: 
231115 V00  .11-  .11-    231115 V00  .01+  .01+    231115 H01  .10+  .11+    
231115 V00  .22+  .16+    231115 H01  .16-  .23-    231115 H01  .12+  .13+    
231115 V00  .05-  .03+    231115 H01  .14-  .10-    

Ephemerides (geocentric):
Date (UTC) HH   RA             Dec           delta  r     elong  mag " sig PA
---- --------  ------------   ------------  ------ ------ -----  --- --------
2023 11 29 17  00 10 39.026   +41 14 21.01  .44457 1.2910 124.4 24.3 819' 115
2023 11 29 18  00 10 40.976   +41 14 55.03  .44531 1.2914 124.4 24.3 828' 115
2023 11 29 19  00 10 42.931   +41 15 28.94  .44605 1.2919 124.4 24.3 837' 114
2023 11 29 20  00 10 44.889   +41 16 02.73  .44679 1.2924 124.4 24.3 845' 114
2023 11 29 21  00 10 46.852   +41 16 36.41  .44754 1.2928 124.3 24.3 853' 113
2023 11 29 22  00 10 48.818   +41 17 09.97  .44828 1.2933 124.3 24.3 860' 113
2023 11 29 23  00 10 50.788   +41 17 43.42  .44902 1.2937 124.3 24.3 867' 113
2023 11 30 00  00 10 52.761   +41 18 16.76  .44976 1.2942 124.3 24.3 873' 112
2023 11 30 01  00 10 54.739   +41 18 49.98  .45050 1.2946 124.3 24.3 879' 112
2023 11 30 02  00 10 56.720   +41 19 23.08  .45124 1.2951 124.2 24.3 884' 112
2023 11 30 03  00 10 58.706   +41 19 56.08  .45199 1.2955 124.2 24.3 889' 111
2023 11 30 04  00 11 00.695   +41 20 28.96  .45273 1.2960 124.2 24.3 894' 111
2023 11 30 05  00 11 02.688   +41 21 01.73  .45347 1.2964 124.2 24.3 898' 111
2023 11 30 06  00 11 04.685   +41 21 34.40  .45421 1.2969 124.1 24.3 902' 110
2023 11 30 07  00 11 06.685   +41 22 06.95  .45496 1.2973 124.1 24.3 906' 110
2023 11 30 08  00 11 08.689   +41 22 39.39  .45570 1.2978 124.1 24.3 909' 110
2023 11 30 09  00 11 10.698   +41 23 11.73  .45644 1.2983 124.1 24.3 913' 109
2023 11 30 10  00 11 12.710   +41 23 43.95  .45718 1.2987 124.0 24.3 916' 109
2023 11 30 11  00 11 14.725   +41 24 16.07  .45793 1.2992 124.0 24.4 919' 109
2023 11 30 12  00 11 16.745   +41 24 48.08  .45867 1.2996 124.0 24.4 921' 109
2023 11 30 13  00 11 18.768   +41 25 19.98  .45941 1.3001 124.0 24.4 924' 108
2023 11 30 14  00 11 20.795   +41 25 51.78  .46015 1.3005 124.0 24.4 926' 108
2023 11 30 15  00 11 22.826   +41 26 23.47  .46090 1.3010 123.9 24.4 929' 108
2023 11 30 16  00 11 24.860   +41 26 55.06  .46164 1.3014 123.9 24.4 931' 108
2023 11 30 17  00 11 26.898   +41 27 26.54  .46238 1.3019 123.9 24.4 933' 107
2023 11 30 18  00 11 28.940   +41 27 57.92  .46313 1.3023 123.9 24.4 934' 107
2023 11 30 19  00 11 30.986   +41 28 29.20  .46387 1.3028 123.8 24.4 936' 107
2023 11 30 20  00 11 33.036   +41 29 00.37  .46461 1.3032 123.8 24.4 938' 107
2023 11 30 21  00 11 35.089   +41 29 31.44  .46536 1.3037 123.8 24.4 939' 107
2023 11 30 22  00 11 37.146   +41 30 02.41  .46610 1.3042 123.8 24.4 941' 106
2023 11 30 23  00 11 39.206   +41 30 33.27  .46684 1.3046 123.7 24.4 942' 106
2023 12 01 00  00 11 41.270   +41 31 04.04  .46759 1.3051 123.7 24.4 944' 106
2023 12 01 01  00 11 43.338   +41 31 34.70  .46833 1.3055 123.7 24.4 945' 106
2023 12 01 02  00 11 45.410   +41 32 05.27  .46907 1.3060 123.7 24.4 946' 106
2023 12 01 03  00 11 47.485   +41 32 35.73  .46982 1.3064 123.7 24.4 947' 105
2023 12 01 04  00 11 49.564   +41 33 06.10  .47056 1.3069 123.6 24.4 948' 105
2023 12 01 05  00 11 51.647   +41 33 36.37  .47131 1.3073 123.6 24.4 949' 105
2023 12 01 06  00 11 53.734   +41 34 06.54  .47205 1.3078 123.6 24.4 950' 105
2023 12 01 07  00 11 55.824   +41 34 36.61  .47279 1.3082 123.6 24.4 951' 105
2023 12 01 08  00 11 57.917   +41 35 06.58  .47354 1.3087 123.5 24.4 952' 105
2023 12 01 09  00 12 00.015   +41 35 36.46  .47428 1.3091 123.5 24.4 953' 104
2023 12 01 10  00 12 02.116   +41 36 06.25  .47503 1.3096 123.5 24.4 954' 104
2023 12 01 11  00 12 04.220   +41 36 35.93  .47577 1.3100 123.5 24.4 955' 104
2023 12 01 12  00 12 06.328   +41 37 05.52  .47652 1.3105 123.4 24.5 955' 104
2023 12 01 13  00 12 08.440   +41 37 35.02  .47726 1.3110 123.4 24.5 956' 104
2023 12 01 14  00 12 10.556   +41 38 04.43  .47801 1.3114 123.4 24.5 957' 103
2023 12 01 15  00 12 12.675   +41 38 33.73  .47875 1.3119 123.4 24.5 957' 103
2023 12 01 16  00 12 14.798   +41 39 02.95  .47950 1.3123 123.4 24.5 958' 103